Weather History for Sparta, WI

Change the Weather History Date:

Saturday, October 5, 2013

  Actual Average Record
Temperature  
Mean Temperature 58 °F -  
Max Temperature 70 °F 64 °F 82 °F (2007)
Min Temperature 45 °F 40 °F 21 °F (1952)
Degree Days  
Heating Degree Days 8    
Growing Degree Days 8 (Base 50)    
Moisture  
Dew Point 58 °F    
Average Humidity 91    
Maximum Humidity 99    
Minimum Humidity 77    
Precipitation  
Precipitation 0.76 in - - ()
Sea Level Pressure  
Sea Level Pressure 29.82 in    
Wind  
Wind Speed 7 mph (ESE)    
Max Wind Speed 24 mph    
Max Gust Speed 44 mph    
Visibility 9 miles    
Events Rain , Thunderstorm    
Averages and records for this station are not official NWS values.
T = Trace of Precipitation, MM = Missing Value Source: NWS Daily Summary

Daily Weather History Graph

Daily Weather History Graph

Search for Another Location

Airport:

Trip Planner

Search our weather history database for the weather conditions in past years. The results will help you decide how hot, cold, wet, or windy it might be!

Date:

Astronomy

Oct. 05, 2013 Rise Set
Actual Time 7:05 AM CDT 6:36 PM CDT
Civil Twilight 6:36 AM CDT 7:04 PM CDT
Nautical Twilight 6:03 AM CDT 7:38 PM CDT
Astronomical Twilight 5:29 AM CDT 8:11 PM CDT
Moon 7:47 AM CDT (10/5) 6:51 PM CDT (10/5)
Length of Visible Light 12h 28m
Length of Day
11h 30m
New Moon, 1% of the Moon is Illuminated
Oct 5
New Moon
Oct 11
First Quarter
Oct 18
Full
Oct 26
Last Quarter
Nov 3
New

Hourly Weather History & Observations

Time (CDT) Temp. Dew Point Humidity Pressure Visibility Wind Dir Wind Speed Gust Speed Precip Events Conditions
12:15 AM 58.1 °F 56.7 °F 95% 29.94 in 5.0 mi NE 6.9 mph - N/A Thunderstorm Overcast
12:35 AM 57.7 °F 56.5 °F 96% 29.93 in 10.0 mi ENE 8.1 mph - N/A Thunderstorm Thunderstorm
12:55 AM 57.6 °F 56.3 °F 96% 29.91 in 5.0 mi East 15.0 mph - N/A Thunderstorm Overcast
1:15 AM 57.4 °F 56.3 °F 96% 29.90 in 5.0 mi East 15.0 mph 20.7 mph N/A Thunderstorm Overcast
1:35 AM 57.4 °F 56.3 °F 96% 29.87 in 4.0 mi East 18.4 mph 23.0 mph 0.03 in   Overcast
1:55 AM 57.2 °F 56.3 °F 97% 29.85 in 4.0 mi East 18.4 mph 29.9 mph 0.03 in Thunderstorm Overcast
2:15 AM 57.4 °F 56.3 °F 96% 29.84 in 4.0 mi East 24.2 mph 29.9 mph N/A Thunderstorm Overcast
2:35 AM 58.1 °F 56.3 °F 94% 29.94 in 1.0 mi NNW 4.6 mph 43.7 mph 0.48 in Rain , Thunderstorm Heavy Thunderstorms and Rain
2:55 AM 56.8 °F 56.3 °F 98% 29.92 in - ENE 5.8 mph - 0.64 in Rain , Thunderstorm Thunderstorms and Rain
3:15 AM 56.7 °F 56.1 °F 98% 29.90 in 10.0 mi NE 9.2 mph - 0.02 in Rain Light Rain
3:35 AM 56.7 °F 56.3 °F 99% 29.88 in 10.0 mi ENE 8.1 mph - 0.02 in Rain Light Rain
3:55 AM 56.8 °F 56.3 °F 98% 29.89 in 10.0 mi East 6.9 mph - 0.03 in Rain Light Rain
4:15 AM 57.4 °F 56.7 °F 97% 29.89 in 10.0 mi ESE 3.5 mph - N/A   Overcast
4:35 AM 57.2 °F 56.5 °F 97% 29.87 in 10.0 mi East 9.2 mph - N/A   Mostly Cloudy
4:55 AM 57.4 °F 56.3 °F 96% 29.88 in 10.0 mi East 8.1 mph - N/A   Scattered Clouds
5:15 AM 57.6 °F 56.5 °F 96% 29.87 in 10.0 mi East 5.8 mph - N/A   Scattered Clouds
5:35 AM 57.7 °F 56.7 °F 96% 29.87 in 10.0 mi East 9.2 mph - N/A   Scattered Clouds
5:55 AM 58.1 °F 56.7 °F 95% 29.87 in 10.0 mi SE 4.6 mph - N/A   Clear
6:15 AM 58.1 °F 56.7 °F 95% 29.86 in 10.0 mi East 5.8 mph - N/A   Scattered Clouds
6:35 AM 58.1 °F 57.0 °F 96% 29.85 in 10.0 mi East 4.6 mph - N/A   Scattered Clouds
6:55 AM 58.1 °F 57.0 °F 96% 29.85 in 10.0 mi East 4.6 mph - N/A   Clear
7:15 AM 58.6 °F 57.4 °F 96% 29.85 in 10.0 mi ESE 6.9 mph - N/A   Clear
7:35 AM 59.4 °F 58.1 °F 96% 29.85 in 10.0 mi ESE 8.1 mph - N/A   Scattered Clouds
7:55 AM 59.9 °F 58.5 °F 95% 29.84 in 10.0 mi ESE 3.5 mph - N/A Rain Light Rain
8:15 AM 59.9 °F 58.5 °F 95% 29.85 in 10.0 mi ESE 4.6 mph - N/A   Scattered Clouds
8:35 AM 60.3 °F 59.0 °F 96% 29.85 in 10.0 mi ESE 3.5 mph - N/A   Clear
8:55 AM 61.2 °F 59.7 °F 95% 29.85 in 10.0 mi East 3.5 mph - N/A   Scattered Clouds
9:15 AM 61.9 °F 60.1 °F 94% 29.85 in 10.0 mi East 4.6 mph - N/A   Overcast
9:35 AM 62.2 °F 60.4 °F 94% 29.85 in 10.0 mi ESE 5.8 mph - N/A   Overcast
9:55 AM 62.8 °F 61.0 °F 94% 29.86 in 10.0 mi SE 3.5 mph - N/A   Overcast
10:15 AM 63.0 °F 61.2 °F 94% 29.86 in 7.0 mi East 4.6 mph - N/A   Overcast
10:35 AM 63.5 °F 61.7 °F 94% 29.86 in 7.0 mi East 3.5 mph - N/A   Overcast
10:55 AM 64.0 °F 62.1 °F 93% 29.86 in 7.0 mi East 3.5 mph - N/A   Overcast
11:15 AM 64.0 °F 62.2 °F 94% 29.86 in 5.0 mi SE 4.6 mph - N/A Rain Light Rain
11:35 AM 65.3 °F 63.3 °F 93% 29.86 in 7.0 mi SE 3.5 mph - N/A   Overcast
11:55 AM 65.8 °F 63.5 °F 92% 29.85 in 7.0 mi SSE 4.6 mph - N/A   Overcast
12:15 PM 67.1 °F 64.0 °F 90% 29.84 in 7.0 mi SE 4.6 mph - N/A   Overcast
12:35 PM 67.5 °F 63.9 °F 88% 29.84 in 10.0 mi SE 8.1 mph - N/A   Overcast
12:55 PM 67.1 °F 63.9 °F 89% 29.84 in 7.0 mi SE 6.9 mph - N/A Rain Light Rain
1:15 PM 66.6 °F 63.9 °F 91% 29.83 in 7.0 mi SE 4.6 mph - N/A   Light Drizzle
1:35 PM 66.6 °F 64.0 °F 92% 29.81 in 7.0 mi ENE 3.5 mph - N/A   Overcast
1:55 PM 66.6 °F 64.4 °F 93% 29.80 in 7.0 mi Calm Calm - N/A   Overcast
2:15 PM 66.9 °F 64.6 °F 92% 29.79 in 7.0 mi Calm Calm - N/A   Overcast
2:35 PM 67.5 °F 64.8 °F 91% 29.78 in 7.0 mi Calm Calm - N/A   Overcast
2:55 PM 68.2 °F 64.6 °F 88% 29.78 in 10.0 mi SSE 3.5 mph - N/A   Overcast
3:15 PM 70.0 °F 64.4 °F 82% 29.76 in 10.0 mi SSE 6.9 mph - N/A   Overcast
3:35 PM 69.8 °F 64.0 °F 82% 29.75 in 10.0 mi South 8.1 mph - N/A   Overcast
3:55 PM 69.8 °F 63.9 °F 81% 29.75 in 10.0 mi SSE 6.9 mph - N/A   Overcast
4:15 PM 68.0 °F 65.5 °F 92% 29.74 in 5.0 mi SE 4.6 mph - 0.04 in Rain Light Rain
4:35 PM 68.9 °F 66.2 °F 91% 29.74 in 7.0 mi SE 3.5 mph - 0.04 in   Overcast
4:55 PM 69.1 °F 66.2 °F 91% 29.73 in 10.0 mi Calm Calm - 0.04 in   Overcast
5:15 PM 69.3 °F 66.4 °F 91% 29.73 in 10.0 mi WSW 5.8 mph - N/A   Overcast
5:35 PM 67.3 °F 63.5 °F 88% 29.74 in 10.0 mi SW 4.6 mph - N/A   Overcast
5:55 PM 66.7 °F 62.1 °F 85% 29.74 in 10.0 mi SW 3.5 mph - N/A   Overcast
6:15 PM 66.0 °F 60.8 °F 83% 29.75 in 10.0 mi SW 8.1 mph - N/A   Overcast
6:35 PM 65.3 °F 58.6 °F 79% 29.74 in 10.0 mi SW 6.9 mph - N/A   Overcast
6:55 PM 64.4 °F 57.4 °F 78% 29.74 in 10.0 mi WSW 8.1 mph - N/A   Overcast
7:15 PM 63.1 °F 56.3 °F 78% 29.74 in 10.0 mi West 8.1 mph 16.1 mph N/A   Overcast
7:35 PM 62.1 °F 55.9 °F 80% 29.75 in 10.0 mi WSW 3.5 mph - N/A Rain Rain
7:55 PM 60.4 °F 56.8 °F 88% 29.75 in 10.0 mi Calm Calm - 0.01 in   Light Drizzle
8:15 PM 60.3 °F 55.2 °F 83% 29.75 in 10.0 mi WSW 5.8 mph - N/A   Overcast
8:35 PM 59.0 °F 53.8 °F 83% 29.75 in 10.0 mi WSW 4.6 mph - 0.01 in Rain Light Rain
8:55 PM 58.1 °F 54.5 °F 88% 29.75 in 10.0 mi Calm Calm - 0.01 in   Overcast
9:15 PM 57.6 °F 54.1 °F 88% 29.77 in 10.0 mi WSW 6.9 mph - N/A   Overcast
9:35 PM 56.3 °F 49.8 °F 79% 29.78 in 10.0 mi West 4.6 mph - N/A   Mostly Cloudy
9:55 PM 54.7 °F 47.5 °F 77% 29.78 in 10.0 mi West 3.5 mph - N/A   Scattered Clouds
10:15 PM 52.7 °F 46.2 °F 79% 29.78 in 10.0 mi Calm Calm - N/A   Clear
10:35 PM 52.0 °F 45.9 °F 80% 29.78 in 10.0 mi Calm Calm - N/A   Clear
10:55 PM 46.9 °F 45.9 °F 96% 29.78 in 10.0 mi Calm Calm - N/A   Clear
11:15 PM 46.9 °F 46.4 °F 98% 29.78 in 10.0 mi Calm Calm - N/A   Clear
11:35 PM 45.9 °F 45.5 °F 99% 29.78 in 2.5 mi Calm Calm - N/A   Clear
11:55 PM 45.3 °F 45.1 °F 99% 29.77 in 10.0 mi Calm Calm - N/A   Clear